�������l�o���
Date,Time,MP-1(��Sv/h),MP-2(��Sv/h),MP-3(��Sv/h),MP-4(��Sv/h),MP-5(��Sv/h),MP-6(��Sv/h),MP-7(��Sv/h),MP-8(��Sv/h),����,����(m/s),���J
2017/09/23,00:00,0.952,1.518,0.987,1.814,1.241,0.517,0.946,0.869,��쐼,4.2,�L
2017/09/23,00:10,0.952,1.513,0.986,1.812,1.242,0.516,0.946,0.869,��,4.4,�L
2017/09/23,00:20,0.951,1.510,0.987,1.812,1.241,0.516,0.945,0.868,��,4.4,�L
2017/09/23,00:30,0.953,1.513,0.986,1.814,1.239,0.515,0.944,0.868,��,3.3,�L
2017/09/23,00:40,0.952,1.513,0.985,1.813,1.238,0.515,0.944,0.869,��,4.2,�L
2017/09/23,00:50,0.952,1.513,0.986,1.812,1.237,0.515,0.947,0.868,��쓌,4.4,�L
2017/09/23,01:00,0.952,1.514,0.988,1.810,1.241,0.516,0.945,0.869,��쓌,5.3,�L
2017/09/23,01:10,0.951,1.517,0.986,1.812,1.241,0.517,0.945,0.868,��쓌,4.5,�L
2017/09/23,01:20,0.952,1.516,0.984,1.810,1.238,0.516,0.946,0.868,��쓌,5.8,�L
2017/09/23,01:30,0.951,1.514,0.987,1.812,1.239,0.516,0.944,0.870,��쓌,6.3,�L
2017/09/23,01:40,0.951,1.516,0.986,1.809,1.239,0.516,0.946,0.867,��쓌,6.1,�L
2017/09/23,01:50,0.952,1.514,0.987,1.808,1.238,0.516,0.945,0.866,��,5.9,�L
2017/09/23,02:00,0.951,1.514,0.985,1.809,1.237,0.516,0.944,0.870,��쓌,6.1,�L
2017/09/23,02:10,0.951,1.511,0.985,1.808,1.235,0.516,0.943,0.869,��쓌,4.8,�L
2017/09/23,02:20,0.949,1.507,0.983,1.810,1.235,0.515,0.942,0.867,��쓌,5.9,�L
2017/09/23,02:30,0.947,1.509,0.983,1.808,1.233,0.516,0.942,0.867,��쓌,6.5,�L
2017/09/23,02:40,0.945,1.502,0.980,1.807,1.227,0.516,0.940,0.869,��쓌,7.6,�L
2017/09/23,02:50,0.942,1.499,0.979,1.802,1.223,0.516,0.935,0.864,-,CALM,�L
2017/09/23,03:00,0.942,1.490,0.977,1.797,1.219,0.516,0.934,0.863,-,CALM,�L
2017/09/23,03:10,0.942,1.484,0.972,1.794,1.215,0.515,0.934,0.859,-,CALM,�L
2017/09/23,03:20,0.936,1.482,0.971,1.785,1.211,0.514,0.932,0.859,�쓌,8.8,�L
2017/09/23,03:30,0.937,1.481,0.970,1.786,1.212,0.514,0.933,0.859,��쓌,7.2,�L
2017/09/23,03:40,0.937,1.478,0.971,1.784,1.211,0.515,0.931,0.858,�쓌,6.3,�L
2017/09/23,03:50,0.935,1.474,0.968,1.780,1.205,0.515,0.931,0.857,�쓌,3.9,�L
2017/09/23,04:00,0.934,1.471,0.965,1.776,1.206,0.513,0.927,0.853,-,CALM,�L
2017/09/23,04:10,0.931,1.464,0.964,1.767,1.201,0.514,0.925,0.854,�쓌,4.8,�L
2017/09/23,04:20,0.929,1.464,0.964,1.762,1.201,0.513,0.927,0.855,�쓌,3.6,�L
2017/09/23,04:30,0.928,1.464,0.962,1.764,1.200,0.514,0.926,0.856,�쓌,3.2,�L
2017/09/23,04:40,0.930,1.465,0.962,1.761,1.201,0.513,0.924,0.855,�쓌,2.3,�L
2017/09/23,04:50,0.927,1.462,0.962,1.761,1.198,0.512,0.925,0.853,���쓌,2.3,�L
2017/09/23,05:00,0.926,1.467,0.962,1.761,1.198,0.511,0.926,0.855,���쓌,2.6,�L
2017/09/23,05:10,0.931,1.466,0.962,1.760,1.196,0.512,0.925,0.851,���쓌,2.2,�L
2017/09/23,05:20,0.927,1.463,0.959,1.759,1.197,0.511,0.923,0.854,���쓌,3.1,�L
2017/09/23,05:30,0.926,1.466,0.959,1.757,1.196,0.511,0.924,0.854,���쓌,3.4,�L
2017/09/23,05:40,0.925,1.464,0.959,1.755,1.194,0.509,0.926,0.854,�쓌,4.1,�L
2017/09/23,05:50,0.925,1.464,0.957,1.755,1.197,0.509,0.925,0.852,���쓌,3.4,�L
2017/09/23,06:00,0.924,1.462,0.956,1.754,1.192,0.508,0.925,0.855,���쓌,3.0,�L
2017/09/23,06:10,0.924,1.462,0.956,1.754,1.193,0.509,0.924,0.854,���쓌,4.0,�L
2017/09/23,06:20,0.925,1.461,0.956,1.755,1.192,0.509,0.923,0.854,���쓌,4.5,�L
2017/09/23,06:30,0.924,1.460,0.957,1.754,1.194,0.510,0.922,0.855,���쓌,3.1,�L
2017/09/23,06:40,0.923,1.463,0.957,1.754,1.194,0.508,0.923,0.853,���쓌,3.5,�L
2017/09/23,06:50,0.922,1.461,0.956,1.753,1.194,0.507,0.922,0.853,��,2.2,�L
2017/09/23,07:00,0.922,1.460,0.956,1.752,1.192,0.507,0.924,0.854,���k��,2.9,�L
2017/09/23,07:10,0.922,1.460,0.955,1.753,1.194,0.506,0.924,0.855,���k��,2.0,�L
2017/09/23,07:20,0.923,1.461,0.956,1.753,1.196,0.508,0.926,0.854,�k�k��,0.9,��
2017/09/23,07:30,0.922,1.461,0.956,1.751,1.194,0.507,0.925,0.854,�k��,0.8,�L
2017/09/23,07:40,0.920,1.460,0.956,1.754,1.197,0.506,0.927,0.854,�k��,1.5,�L
2017/09/23,07:50,0.923,1.459,0.954,1.750,1.197,0.507,0.926,0.855,�k,1.9,�L
2017/09/23,08:00,0.923,1.462,0.956,1.751,1.195,0.507,0.927,0.857,�k�k��,2.3,�L
2017/09/23,08:10,0.923,1.464,0.957,1.755,1.198,0.508,0.927,0.856,�k�k��,3.0,�L
2017/09/23,08:20,0.925,1.463,0.957,1.756,1.196,0.506,0.924,0.854,�k�k��,2.3,�L
2017/09/23,08:30,0.923,1.464,0.957,1.756,1.197,0.506,0.925,0.856,�k��,1.9,�L
2017/09/23,08:40,0.922,1.462,0.957,1.757,1.197,0.504,0.927,0.854,�k�k��,1.9,�L
2017/09/23,08:50,0.923,1.458,0.955,1.756,1.199,0.504,0.928,0.852,�k�k��,1.7,��
2017/09/23,09:00,0.923,1.460,0.958,1.757,1.197,0.506,0.927,0.855,�k�k��,2.6,��
2017/09/23,09:10,0.922,1.463,0.955,1.758,1.197,0.505,0.927,0.854,�k�k��,2.2,��
2017/09/23,09:20,0.920,1.468,0.952,1.756,1.198,0.505,0.928,0.854,�k,2.5,��
2017/09/23,09:30,0.922,1.467,0.955,1.758,1.198,0.505,0.926,0.856,�k,2.5,��
2017/09/23,09:40,0.922,1.459,0.954,1.756,1.196,0.504,0.928,0.853,�k�k��,2.6,��
2017/09/23,09:50,0.921,1.463,0.955,1.755,1.197,0.505,0.928,0.852,�k�k��,4.1,�L
2017/09/23,10:00,0.921,1.461,0.956,1.760,1.199,0.506,0.928,0.854,�k�k��,3.9,�L
2017/09/23,10:10,0.924,1.463,0.956,1.760,1.198,0.506,0.928,0.854,�k�k��,3.1,�L
2017/09/23,10:20,0.922,1.463,0.955,1.760,1.198,0.505,0.929,0.855,�k��,3.1,�L
2017/09/23,10:30,0.920,1.461,0.954,1.760,1.199,0.506,0.929,0.855,�k�k��,3.6,�L
2017/09/23,10:40,0.921,1.462,0.957,1.757,1.204,0.507,0.930,0.856,�k�k��,3.0,�L
2017/09/23,10:50,0.924,1.465,0.958,1.759,1.200,0.506,0.930,0.856,�k,2.6,��
2017/09/23,11:00,0.923,1.465,0.957,1.761,1.201,0.507,0.928,0.855,�k�k��,2.5,��
2017/09/23,11:10,0.922,1.467,0.956,1.762,1.202,0.506,0.929,0.854,�k��,2.0,��
2017/09/23,11:20,0.924,1.468,0.960,1.760,1.203,0.507,0.929,0.856,�k,1.7,��
2017/09/23,11:30,0.925,1.470,0.956,1.760,1.202,0.508,0.929,0.855,�k�k��,2.6,��
2017/09/23,11:40,0.924,1.469,0.959,1.760,1.205,0.506,0.928,0.856,�k�k��,2.2,��
2017/09/23,11:50,0.923,1.468,0.957,1.762,1.201,0.504,0.928,0.858,�k,2.3,��
2017/09/23,12:00,0.924,1.466,0.957,1.765,1.202,0.506,0.930,0.857,�k,1.7,��
2017/09/23,12:10,0.923,1.470,0.957,1.764,1.199,0.505,0.930,0.857,�k,2.3,��
2017/09/23,12:20,0.925,1.470,0.957,1.764,1.203,0.504,0.928,0.855,�k�k��,2.6,��
2017/09/23,12:30,0.927,1.469,0.957,1.763,1.203,0.506,0.930,0.854,�k�k��,3.2,��
2017/09/23,12:40,0.925,1.470,0.958,1.764,1.205,0.504,0.929,0.856,�k�k��,3.1,��
2017/09/23,12:50,0.927,1.469,0.958,1.761,1.203,0.504,0.932,0.855,�k�k��,3.7,��
2017/09/23,13:00,0.924,1.469,0.956,1.766,1.202,0.506,0.930,0.853,�k�k��,2.6,��
2017/09/23,13:10,0.925,1.469,0.957,1.761,1.203,0.505,0.931,0.854,�k,2.2,��
2017/09/23,13:20,0.925,1.470,0.959,1.764,1.204,0.506,0.930,0.856,�k�k��,2.6,��
2017/09/23,13:30,0.924,1.471,0.956,1.765,1.204,0.505,0.930,0.855,�k�k��,2.3,��
2017/09/23,13:40,0.925,1.472,0.958,1.769,1.206,0.503,0.930,0.856,�k�k��,2.9,��
2017/09/23,13:50,0.925,1.474,0.960,1.767,1.203,0.505,0.930,0.857,�k��,2.8,��
2017/09/23,14:00,0.926,1.470,0.960,1.766,1.204,0.505,0.931,0.858,�k�k��,2.2,��
2017/09/23,14:10,0.926,1.473,0.960,1.767,1.206,0.505,0.930,0.858,�k��,2.6,��
2017/09/23,14:20,0.923,1.474,0.961,1.766,1.205,0.505,0.930,0.858,�k��,2.3,��
2017/09/23,14:30,0.924,1.473,0.961,1.768,1.206,0.506,0.931,0.856,�k��,2.3,��
2017/09/23,14:40,0.926,1.475,0.960,1.768,1.204,0.506,0.931,0.856,�k��,3.0,��
2017/09/23,14:50,0.929,1.474,0.964,1.766,1.204,0.505,0.931,0.857,�k��,3.1,��
2017/09/23,15:00,0.926,1.474,0.962,1.770,1.206,0.507,0.931,0.858,�k��,3.6,��
2017/09/23,15:10,0.927,1.476,0.963,1.770,1.207,0.506,0.932,0.858,�k��,3.5,��
2017/09/23,15:20,0.928,1.475,0.962,1.768,1.207,0.506,0.930,0.857,�k�k��,3.2,��
2017/09/23,15:30,0.930,1.473,0.963,1.771,1.206,0.507,0.931,0.856,�k�k��,2.9,��
2017/09/23,15:40,0.927,1.475,0.963,1.767,1.206,0.507,0.931,0.856,�k�k��,2.3,��
2017/09/23,15:50,0.927,1.477,0.962,1.768,1.208,0.505,0.933,0.857,�k,3.1,��
2017/09/23,16:00,0.926,1.476,0.960,1.771,1.207,0.506,0.933,0.857,�k�k��,2.9,��
2017/09/23,16:10,0.924,1.479,0.962,1.767,1.206,0.506,0.930,0.859,�k,2.6,��
2017/09/23,16:20,0.929,1.477,0.960,1.768,1.208,0.508,0.933,0.859,�k,2.0,��
2017/09/23,16:30,0.929,1.474,0.961,1.769,1.207,0.508,0.931,0.857,�k,2.6,��
2017/09/23,16:40,0.927,1.476,0.962,1.769,1.208,0.505,0.933,0.855,�k�k��,2.6,��
2017/09/23,16:50,0.928,1.476,0.960,1.770,1.206,0.507,0.933,0.859,�k�k��,2.8,��
2017/09/23,17:00,0.926,1.478,0.962,1.769,1.207,0.508,0.931,0.858,�k�k��,2.9,��
2017/09/23,17:10,0.927,1.479,0.962,1.771,1.209,0.508,0.933,0.860,�k,3.2,��
2017/09/23,17:20,0.928,1.479,0.962,1.770,1.212,0.509,0.932,0.861,�k,4.1,��
2017/09/23,17:30,0.929,1.480,0.964,1.770,1.209,0.508,0.931,0.862,�k,4.1,��
2017/09/23,17:40,0.930,1.476,0.963,1.769,1.212,0.507,0.932,0.861,�k,3.6,��
2017/09/23,17:50,0.929,1.480,0.963,1.770,1.211,0.507,0.932,0.861,�k,4.0,��
2017/09/23,18:00,0.929,1.482,0.961,1.771,1.211,0.509,0.931,0.861,�k,3.2,��
2017/09/23,18:10,0.930,1.478,0.964,1.771,1.213,0.507,0.932,0.863,�k,2.6,��
2017/09/23,18:20,0.930,1.481,0.962,1.770,1.206,0.508,0.932,0.860,�k,3.0,��
2017/09/23,18:30,0.931,1.481,0.964,1.771,1.211,0.509,0.932,0.859,�k,2.8,��
2017/09/23,18:40,0.932,1.478,0.964,1.769,1.208,0.509,0.933,0.860,�k,2.3,��
2017/09/23,18:50,0.930,1.480,0.964,1.770,1.211,0.508,0.934,0.861,�k�k��,2.6,��
2017/09/23,19:00,0.928,1.480,0.962,1.768,1.211,0.509,0.934,0.859,�k�k��,2.3,��
2017/09/23,19:10,0.931,1.479,0.965,1.768,1.210,0.508,0.933,0.860,�k�k��,2.0,��
2017/09/23,19:20,0.931,1.479,0.965,1.769,1.211,0.508,0.933,0.860,�k,1.7,��
2017/09/23,19:30,0.931,1.481,0.963,1.771,1.212,0.507,0.935,0.858,�k,2.0,��
2017/09/23,19:40,0.929,1.481,0.966,1.769,1.211,0.508,0.936,0.859,�k�k��,2.2,��
2017/09/23,19:50,0.930,1.481,0.963,1.771,1.212,0.509,0.934,0.857,�k�k��,2.0,��
2017/09/23,20:00,0.930,1.479,0.963,1.771,1.212,0.509,0.933,0.861,�k��,2.0,��
2017/09/23,20:10,0.930,1.479,0.963,1.771,1.213,0.508,0.933,0.860,�k��,2.0,��
2017/09/23,20:20,0.928,1.479,0.962,1.771,1.209,0.509,0.934,0.860,�k��,1.5,��
2017/09/23,20:30,0.930,1.478,0.964,1.770,1.212,0.507,0.934,0.859,�k��,2.3,��
2017/09/23,20:40,0.929,1.478,0.962,1.770,1.212,0.507,0.934,0.858,�k�k��,2.6,��
2017/09/23,20:50,0.929,1.480,0.962,1.770,1.212,0.508,0.934,0.860,�k�k��,3.7,��
2017/09/23,21:00,0.930,1.479,0.961,1.769,1.211,0.508,0.934,0.857,�k�k��,3.3,��
2017/09/23,21:10,0.929,1.481,0.962,1.771,1.211,0.508,0.933,0.860,�k�k��,2.9,��
2017/09/23,21:20,0.930,1.479,0.962,1.771,1.211,0.509,0.935,0.861,�k�k��,2.5,��
2017/09/23,21:30,0.930,1.477,0.964,1.772,1.211,0.508,0.933,0.862,�k�k��,2.6,��
2017/09/23,21:40,0.931,1.480,0.963,1.771,1.212,0.509,0.934,0.859,�k�k��,2.2,��
2017/09/23,21:50,0.929,1.481,0.963,1.772,1.212,0.509,0.934,0.860,�k��,2.5,��
2017/09/23,22:00,0.929,1.480,0.962,1.768,1.213,0.508,0.933,0.861,�k��,2.6,��
2017/09/23,22:10,0.930,1.476,0.962,1.772,1.214,0.509,0.934,0.861,���k��,2.3,��
2017/09/23,22:20,0.929,1.478,0.961,1.771,1.211,0.508,0.934,0.861,�k��,3.0,��
2017/09/23,22:30,0.928,1.479,0.960,1.771,1.210,0.510,0.933,0.859,�k��,3.1,��
2017/09/23,22:40,0.932,1.478,0.962,1.768,1.212,0.510,0.935,0.859,�k��,3.0,��
2017/09/23,22:50,0.929,1.478,0.961,1.770,1.211,0.507,0.934,0.860,�k�k��,2.0,��
2017/09/23,23:00,0.928,1.478,0.960,1.770,1.210,0.507,0.936,0.861,�k�k��,2.3,��
2017/09/23,23:10,0.927,1.478,0.961,1.769,1.211,0.508,0.935,0.862,�k�k��,2.2,��
2017/09/23,23:20,0.929,1.478,0.963,1.772,1.211,0.510,0.934,0.859,�k��,2.2,��
2017/09/23,23:30,0.928,1.476,0.962,1.772,1.208,0.508,0.934,0.860,�k��,2.0,��
2017/09/23,23:40,0.928,1.477,0.960,1.767,1.210,0.508,0.934,0.861,�k��,2.0,��
2017/09/23,23:50,0.928,1.476,0.962,1.769,1.208,0.508,0.934,0.860,���k��,2.0,��
